PAS647 WAHI-WALL

Flight info

Callsign PAS647
Flight time 1h 40m
Altitude 36000
Route SO W17N ANY T11 KAYAN
Aircraft A320/M-SDE3FGHIRWY/LB1

Departure

Time 2026-04-27 05:34
Airport Yogyakarta International Airport (WAHI)

Arrival

Time 2026-04-27 07:14
Airport Sultan Aji Muhammad Sulaiman Sepinggan International Airport (WALL)
Time Latitude Longitude Altitude Speed Heading
2026-04-27 05:09 -7.90106 110.05881 38 ft 0 kts 20°
2026-04-27 05:23 -7.90130 110.05872 38 ft 4 kts 18°
2026-04-27 05:23 -7.90156 110.05865 38 ft 4 kts 14°
2026-04-27 05:23 -7.90183 110.05859 38 ft 4 kts
2026-04-27 05:23 -7.90208 110.05861 38 ft 4 kts 330°
2026-04-27 05:24 -7.90219 110.05871 38 ft 1 kts 290°
2026-04-27 05:24 -7.90220 110.05873 37 ft 0 kts 290°
2026-04-27 05:26 -7.90211 110.05848 36 ft 6 kts 290°
2026-04-27 05:27 -7.90210 110.05803 38 ft 10 kts 241°
2026-04-27 05:27 -7.90269 110.05773 39 ft 10 kts 199°
2026-04-27 05:27 -7.90326 110.05753 42 ft 5 kts 200°
2026-04-27 05:27 -7.90345 110.05713 45 ft 11 kts 275°
2026-04-27 05:28 -7.90309 110.05610 43 ft 19 kts 290°
2026-04-27 05:28 -7.90260 110.05476 42 ft 22 kts 290°
2026-04-27 05:28 -7.90207 110.05331 40 ft 23 kts 290°
2026-04-27 05:28 -7.90148 110.05168 36 ft 26 kts 290°
2026-04-27 05:29 -7.90084 110.04994 37 ft 26 kts 290°
2026-04-27 05:29 -7.90021 110.04819 37 ft 27 kts 290°
2026-04-27 05:29 -7.89960 110.04654 41 ft 22 kts 290°
2026-04-27 05:29 -7.89915 110.04532 41 ft 18 kts 290°
2026-04-27 05:30 -7.89872 110.04416 39 ft 13 kts 290°
2026-04-27 05:30 -7.89851 110.04358 38 ft 7 kts 291°
2026-04-27 05:30 -7.89855 110.04315 40 ft 5 kts 234°
2026-04-27 05:30 -7.89878 110.04306 40 ft 2 kts 186°
2026-04-27 05:31 -7.89883 110.04306 40 ft 0 kts 181°
2026-04-27 05:31 -7.89886 110.04306 38 ft 2 kts 179°
2026-04-27 05:31 -7.89904 110.04310 39 ft 2 kts 161°
2026-04-27 05:31 -7.89930 110.04322 41 ft 6 kts 154°
2026-04-27 05:32 -7.89961 110.04337 41 ft 4 kts 153°
2026-04-27 05:32 -7.89993 110.04354 42 ft 4 kts 156°
2026-04-27 05:32 -7.90027 110.04353 43 ft 5 kts 172°
2026-04-27 05:32 -7.90043 110.04382 41 ft 6 kts 111°
2026-04-27 05:33 -7.90130 110.04610 37 ft 72 kts 110°
2026-04-27 05:33 -7.90374 110.05286 38 ft 131 kts 110°
2026-04-27 05:33 -7.90746 110.06300 47 ft 175 kts 111°
2026-04-27 05:33 -7.91262 110.07440 546 ft 181 kts 129°
2026-04-27 05:34 -7.92306 110.08077 1249 ft 179 kts 168°
2026-04-27 05:34 -7.93534 110.08252 1923 ft 180 kts 175°
2026-04-27 05:34 -7.94848 110.08363 2207 ft 200 kts 175°
2026-04-27 05:34 -7.96318 110.08489 2427 ft 224 kts 174°
2026-04-27 05:35 -7.97380 110.08592 2683 ft 237 kts 173°
2026-04-27 05:35 -7.99049 110.08770 3348 ft 244 kts 172°
2026-04-27 05:35 -8.01296 110.09036 4344 ft 247 kts 172°
2026-04-27 05:35 -8.03011 110.09253 5089 ft 250 kts 171°
2026-04-27 05:36 -8.04748 110.09480 5869 ft 253 kts 171°
2026-04-27 05:36 -8.06454 110.09912 6532 ft 259 kts 157°
2026-04-27 05:36 -8.08156 110.10678 6934 ft 275 kts 154°
2026-04-27 05:36 -8.09320 110.11222 7349 ft 279 kts 154°
2026-04-27 05:37 -8.11088 110.12058 8042 ft 283 kts 154°
2026-04-27 05:37 -8.12902 110.12914 8755 ft 286 kts 154°
2026-04-27 05:37 -8.14695 110.13757 9427 ft 290 kts 154°
2026-04-27 05:37 -8.16534 110.14617 10096 ft 293 kts 154°
2026-04-27 05:38 -8.18440 110.15509 10357 ft 313 kts 154°
2026-04-27 05:38 -8.20480 110.16463 10502 ft 334 kts 154°
2026-04-27 05:38 -8.22651 110.17478 10691 ft 352 kts 154°
2026-04-27 05:38 -8.24898 110.18528 11170 ft 358 kts 154°
2026-04-27 05:39 -8.27170 110.19587 11751 ft 362 kts 155°
2026-04-27 05:39 -8.29461 110.20652 12357 ft 364 kts 156°
2026-04-27 05:39 -8.31910 110.21329 12911 ft 370 kts 174°
2026-04-27 05:39 -8.34477 110.21068 13445 ft 376 kts 195°
2026-04-27 05:40 -8.36808 110.19846 13967 ft 384 kts 218°
2026-04-27 05:40 -8.38544 110.17795 14473 ft 391 kts 239°
2026-04-27 05:40 -8.39792 110.15339 14982 ft 394 kts 242°
2026-04-27 05:40 -8.40842 110.12774 15449 ft 400 kts 255°
2026-04-27 05:41 -8.41050 110.09968 15898 ft 405 kts 276°
2026-04-27 05:41 -8.40308 110.07226 16368 ft 409 kts 296°
2026-04-27 05:41 -8.38685 110.04879 16799 ft 411 kts 316°
2026-04-27 05:41 -8.36364 110.03219 17228 ft 411 kts 334°
2026-04-27 05:42 -8.33795 110.01935 17674 ft 413 kts 335°
2026-04-27 05:42 -8.31190 110.00673 18094 ft 416 kts 338°
2026-04-27 05:42 -8.28452 109.99756 18498 ft 417 kts 349°
2026-04-27 05:42 -8.25588 109.99327 18908 ft 417 kts 358°
2026-04-27 05:43 -8.22684 109.99158 19309 ft 419 kts 358°
2026-04-27 05:43 -8.19762 109.98982 19708 ft 422 kts 358°
2026-04-27 05:43 -8.16861 109.98801 20088 ft 424 kts 358°
2026-04-27 05:43 -8.13909 109.98613 20464 ft 426 kts 358°
2026-04-27 05:44 -8.10939 109.98422 20825 ft 429 kts 358°
2026-04-27 05:44 -8.07956 109.98235 21164 ft 431 kts 358°
2026-04-27 05:44 -8.04947 109.98050 21522 ft 434 kts 358°
2026-04-27 05:44 -8.01929 109.97866 21858 ft 435 kts 358°
2026-04-27 05:45 -7.98902 109.97684 22192 ft 438 kts 358°
2026-04-27 05:45 -7.95857 109.97502 22512 ft 440 kts 358°
2026-04-27 05:45 -7.92791 109.97317 22819 ft 442 kts 358°
2026-04-27 05:45 -7.89715 109.97146 23128 ft 444 kts
2026-04-27 05:46 -7.86631 109.97321 23413 ft 444 kts 11°
2026-04-27 05:46 -7.83676 109.98194 23690 ft 444 kts 26°
2026-04-27 05:46 -7.81066 109.99830 23946 ft 443 kts 42°
2026-04-27 05:46 -7.79047 110.02161 24199 ft 443 kts 59°
2026-04-27 05:47 -7.77806 110.04990 24456 ft 443 kts 76°
2026-04-27 05:47 -7.77429 110.08061 24700 ft 443 kts 92°
2026-04-27 05:47 -7.77732 110.11157 24957 ft 444 kts 97°
2026-04-27 05:47 -7.78105 110.14255 25220 ft 446 kts 97°
2026-04-27 05:48 -7.78483 110.17365 25477 ft 448 kts 97°
2026-04-27 05:48 -7.78862 110.20489 25728 ft 449 kts 97°
2026-04-27 05:48 -7.79239 110.23623 25976 ft 451 kts 97°
2026-04-27 05:48 -7.79599 110.26762 26220 ft 452 kts 96°
2026-04-27 05:49 -7.79904 110.29925 26481 ft 453 kts 92°
2026-04-27 05:49 -7.79771 110.33105 26716 ft 455 kts 83°
2026-04-27 05:49 -7.79337 110.36270 26947 ft 456 kts 82°
2026-04-27 05:49 -7.78841 110.39430 27173 ft 458 kts 77°
2026-04-27 05:50 -7.77892 110.42505 27401 ft 460 kts 68°
2026-04-27 05:50 -7.76442 110.45379 27618 ft 462 kts 58°
2026-04-27 05:50 -7.74513 110.47971 27836 ft 464 kts 50°
2026-04-27 05:50 -7.72389 110.50424 28055 ft 465 kts 50°
2026-04-27 05:51 -7.70256 110.52887 28278 ft 466 kts 50°
2026-04-27 05:51 -7.68120 110.55354 28482 ft 468 kts 50°
2026-04-27 05:51 -7.65987 110.57826 28699 ft 468 kts 50°
2026-04-27 05:51 -7.63848 110.60308 28889 ft 470 kts 50°
2026-04-27 05:52 -7.61707 110.62796 29145 ft 469 kts 50°
2026-04-27 05:52 -7.59597 110.65248 29436 ft 469 kts 50°
2026-04-27 05:52 -7.57437 110.67753 29754 ft 467 kts 50°
2026-04-27 05:52 -7.55226 110.70148 30040 ft 467 kts 43°
2026-04-27 05:53 -7.52674 110.72106 30314 ft 468 kts 33°
2026-04-27 05:53 -7.49728 110.73591 30588 ft 470 kts 22°
2026-04-27 05:53 -7.46587 110.74491 30875 ft 471 kts 12°
2026-04-27 05:53 -7.43361 110.74795 31178 ft 472 kts
2026-04-27 05:54 -7.40079 110.74851 31479 ft 471 kts
2026-04-27 05:54 -7.36815 110.74908 31783 ft 469 kts
2026-04-27 05:54 -7.33552 110.74970 32091 ft 468 kts
2026-04-27 05:54 -7.30301 110.75033 32401 ft 466 kts
2026-04-27 05:55 -7.27060 110.75005 32700 ft 466 kts 356°
2026-04-27 05:55 -7.23872 110.74386 32983 ft 468 kts 344°
2026-04-27 05:55 -7.20870 110.73103 33271 ft 471 kts 332°
2026-04-27 05:55 -7.18181 110.71215 33549 ft 473 kts 320°
2026-04-27 05:56 -7.15931 110.68797 33811 ft 476 kts 308°
2026-04-27 05:56 -7.14146 110.65987 34062 ft 477 kts 303°
2026-04-27 05:56 -7.12444 110.63124 34325 ft 476 kts 303°
2026-04-27 05:56 -7.10748 110.60270 34565 ft 475 kts 303°
2026-04-27 05:57 -7.09007 110.57440 34769 ft 474 kts 309°
2026-04-27 05:57 -7.06792 110.55028 34841 ft 469 kts 324°
2026-04-27 05:57 -7.04060 110.53278 34840 ft 463 kts 339°
2026-04-27 05:57 -7.01022 110.52285 34841 ft 458 kts 353°
2026-04-27 05:58 -6.97856 110.52080 34842 ft 454 kts
2026-04-27 05:58 -6.94771 110.52629 34841 ft 451 kts 20°
2026-04-27 05:58 -6.91921 110.53897 34842 ft 448 kts 33°
2026-04-27 05:58 -6.89478 110.55817 34839 ft 446 kts 47°
2026-04-27 05:59 -6.87571 110.58259 34841 ft 445 kts 60°
2026-04-27 05:59 -6.84782 110.63833 34837 ft 446 kts 64°
2026-04-27 06:00 -6.80659 110.72192 34841 ft 447 kts 63°
2026-04-27 06:00 -6.77893 110.77793 34848 ft 447 kts 63°
2026-04-27 06:01 -6.75123 110.83399 34853 ft 447 kts 63°
2026-04-27 06:01 -6.72360 110.89004 34855 ft 447 kts 64°
2026-04-27 06:02 -6.69592 110.94613 34857 ft 447 kts 63°
2026-04-27 06:02 -6.66831 111.00216 34857 ft 447 kts 64°
2026-04-27 06:03 -6.64079 111.05811 34852 ft 446 kts 63°
2026-04-27 06:03 -6.61321 111.11403 34851 ft 446 kts 63°
2026-04-27 06:04 -6.58559 111.16979 34850 ft 445 kts 63°
2026-04-27 06:04 -6.55800 111.22558 34847 ft 446 kts 63°
2026-04-27 06:05 -6.53047 111.28145 34844 ft 446 kts 63°
2026-04-27 06:05 -6.50289 111.33733 34844 ft 446 kts 63°
2026-04-27 06:06 -6.47526 111.39315 34849 ft 446 kts 63°
2026-04-27 06:06 -6.44759 111.44896 34851 ft 446 kts 63°
2026-04-27 06:07 -6.41994 111.50473 34852 ft 446 kts 63°
2026-04-27 06:07 -6.39234 111.56059 34855 ft 446 kts 63°
2026-04-27 06:08 -6.36496 111.61606 34857 ft 446 kts 63°
2026-04-27 06:08 -6.33735 111.67174 34857 ft 445 kts 63°
2026-04-27 06:09 -6.30962 111.72748 34855 ft 445 kts 63°
2026-04-27 06:09 -6.28206 111.78322 34856 ft 445 kts 63°
2026-04-27 06:10 -6.25373 111.83846 34855 ft 445 kts 60°
2026-04-27 06:10 -6.22181 111.89175 34853 ft 444 kts 58°
2026-04-27 06:11 -6.18880 111.94412 34853 ft 444 kts 58°
2026-04-27 06:11 -6.15632 111.99688 34851 ft 444 kts 58°
2026-04-27 06:12 -6.12444 112.05001 34848 ft 444 kts 59°
2026-04-27 06:12 -6.09284 112.10285 34845 ft 444 kts 59°
2026-04-27 06:13 -6.06085 112.15589 34844 ft 444 kts 59°
2026-04-27 06:13 -6.02875 112.20887 34839 ft 444 kts 59°
2026-04-27 06:14 -5.99662 112.26186 34839 ft 444 kts 59°
2026-04-27 06:14 -5.96463 112.31487 34836 ft 445 kts 59°
2026-04-27 06:15 -5.93253 112.36802 34835 ft 445 kts 59°
2026-04-27 06:15 -5.90040 112.42123 34838 ft 446 kts 59°
2026-04-27 06:16 -5.86818 112.47449 34841 ft 446 kts 59°
2026-04-27 06:16 -5.83593 112.52766 34843 ft 446 kts 59°
2026-04-27 06:17 -5.80372 112.58082 34836 ft 446 kts 59°
2026-04-27 06:17 -5.77161 112.63402 34833 ft 446 kts 59°
2026-04-27 06:18 -5.73940 112.68729 34831 ft 446 kts 59°
2026-04-27 06:18 -5.70731 112.74027 34830 ft 447 kts 59°
2026-04-27 06:19 -5.67502 112.79360 34831 ft 447 kts 59°
2026-04-27 06:19 -5.64270 112.84690 34830 ft 448 kts 59°
2026-04-27 06:20 -5.61030 112.90028 34832 ft 448 kts 59°
2026-04-27 06:20 -5.57795 112.95373 34833 ft 448 kts 59°
2026-04-27 06:21 -5.54560 113.00723 34832 ft 448 kts 59°
2026-04-27 06:21 -5.51314 113.06074 34832 ft 449 kts 59°
2026-04-27 06:22 -5.48062 113.11430 34835 ft 449 kts 59°
2026-04-27 06:22 -5.44812 113.16779 34834 ft 449 kts 59°
2026-04-27 06:23 -5.41548 113.22134 34835 ft 450 kts 59°
2026-04-27 06:23 -5.38315 113.27461 34839 ft 450 kts 59°
2026-04-27 06:24 -5.35060 113.32824 34838 ft 450 kts 59°
2026-04-27 06:24 -5.31805 113.38189 34840 ft 450 kts 59°
2026-04-27 06:25 -5.28552 113.43543 34838 ft 450 kts 59°
2026-04-27 06:25 -5.25294 113.48906 34839 ft 450 kts 59°
2026-04-27 06:26 -5.22038 113.54263 34835 ft 450 kts 59°
2026-04-27 06:26 -5.18777 113.59628 34831 ft 450 kts 59°
2026-04-27 06:27 -5.16064 113.64092 34831 ft 451 kts 59°
2026-04-27 06:27 -5.12800 113.69460 34834 ft 451 kts 59°
2026-04-27 06:28 -5.09529 113.74834 34834 ft 451 kts 59°
2026-04-27 06:28 -5.06249 113.80209 34831 ft 452 kts 59°
2026-04-27 06:29 -5.02971 113.85591 34830 ft 452 kts 59°
2026-04-27 06:29 -4.99693 113.90981 34832 ft 452 kts 59°
2026-04-27 06:30 -4.96258 113.96263 34831 ft 453 kts 50°
2026-04-27 06:30 -4.91521 114.00414 34831 ft 455 kts 34°
2026-04-27 06:31 -4.86220 114.03903 34812 ft 456 kts 34°
2026-04-27 06:31 -4.80919 114.07417 34815 ft 458 kts 34°
2026-04-27 06:32 -4.75641 114.10922 34817 ft 458 kts 34°
2026-04-27 06:32 -4.70315 114.14456 34824 ft 459 kts 34°
2026-04-27 06:33 -4.64974 114.17985 34812 ft 460 kts 34°
2026-04-27 06:33 -4.59641 114.21521 34815 ft 460 kts 34°
2026-04-27 06:34 -4.54292 114.25058 34814 ft 461 kts 34°
2026-04-27 06:34 -4.48953 114.28599 34813 ft 460 kts 34°
2026-04-27 06:35 -4.43602 114.32138 34827 ft 460 kts 34°
2026-04-27 06:35 -4.38258 114.35672 34830 ft 460 kts 34°
2026-04-27 06:36 -4.32913 114.39210 34811 ft 461 kts 34°
2026-04-27 06:36 -4.27570 114.42754 34831 ft 461 kts 34°
2026-04-27 06:37 -4.22217 114.46299 34820 ft 461 kts 34°
2026-04-27 06:37 -4.16856 114.49838 34829 ft 461 kts 34°
2026-04-27 06:38 -4.11491 114.53378 34831 ft 461 kts 34°
2026-04-27 06:38 -4.06141 114.56917 34816 ft 461 kts 34°
2026-04-27 06:39 -4.00790 114.60460 34830 ft 461 kts 34°
2026-04-27 06:39 -3.95430 114.64002 34830 ft 462 kts 34°
2026-04-27 06:40 -3.90064 114.67546 34825 ft 462 kts 34°
2026-04-27 06:40 -3.84722 114.71071 34830 ft 463 kts 34°
2026-04-27 06:41 -3.79343 114.74624 34822 ft 463 kts 34°
2026-04-27 06:41 -3.73961 114.78181 34830 ft 463 kts 34°
2026-04-27 06:42 -3.68589 114.81731 34832 ft 463 kts 34°
2026-04-27 06:42 -3.63203 114.85285 34830 ft 464 kts 34°
2026-04-27 06:43 -3.57815 114.88842 34811 ft 464 kts 34°
2026-04-27 06:43 -3.52430 114.92403 34814 ft 464 kts 34°
2026-04-27 06:44 -3.47035 114.95959 34805 ft 464 kts 34°
2026-04-27 06:44 -3.41643 114.99508 34807 ft 464 kts 34°
2026-04-27 06:45 -3.36256 115.03070 34805 ft 464 kts 34°
2026-04-27 06:45 -3.30867 115.06629 34807 ft 465 kts 34°
2026-04-27 06:46 -3.25507 115.10171 34810 ft 465 kts 34°
2026-04-27 06:46 -3.20100 115.13737 34812 ft 465 kts 34°
2026-04-27 06:47 -3.14701 115.17295 34811 ft 465 kts 34°
2026-04-27 06:47 -3.09287 115.20854 34811 ft 465 kts 34°
2026-04-27 06:48 -3.03879 115.24420 34824 ft 466 kts 35°
2026-04-27 06:48 -2.98476 115.27992 34830 ft 466 kts 34°
2026-04-27 06:49 -2.93053 115.31560 34823 ft 466 kts 34°
2026-04-27 06:49 -2.87639 115.35120 34815 ft 466 kts 35°
2026-04-27 06:50 -2.82231 115.38690 34817 ft 466 kts 35°
2026-04-27 06:50 -2.76825 115.42262 34812 ft 466 kts 35°
2026-04-27 06:51 -2.71457 115.45805 34819 ft 465 kts 34°
2026-04-27 06:51 -2.66041 115.49362 34820 ft 465 kts 34°
2026-04-27 06:52 -2.60636 115.52917 34820 ft 465 kts 35°
2026-04-27 06:52 -2.55233 115.56482 34816 ft 465 kts 35°
2026-04-27 06:53 -2.52534 115.58259 34670 ft 465 kts 35°
2026-04-27 06:53 -2.49827 115.60039 33954 ft 467 kts 35°
2026-04-27 06:53 -2.47096 115.61837 32931 ft 473 kts 35°
2026-04-27 06:53 -2.44336 115.63655 31901 ft 478 kts 35°
2026-04-27 06:54 -2.41550 115.65492 30865 ft 482 kts 35°
2026-04-27 06:54 -2.38733 115.67351 29720 ft 488 kts 35°
2026-04-27 06:54 -2.35887 115.69228 28645 ft 491 kts 35°
2026-04-27 06:54 -2.33040 115.71103 27728 ft 489 kts 34°
2026-04-27 06:55 -2.30213 115.72962 26985 ft 484 kts 34°
2026-04-27 06:55 -2.27418 115.74799 26236 ft 478 kts 34°
2026-04-27 06:55 -2.24660 115.76624 25493 ft 472 kts 36°
2026-04-27 06:55 -2.22191 115.78675 24785 ft 464 kts 45°
2026-04-27 06:56 -2.19970 115.81047 24056 ft 458 kts 48°
2026-04-27 06:56 -2.17856 115.83347 23366 ft 453 kts 48°
2026-04-27 06:56 -2.15738 115.85650 22681 ft 448 kts 48°
2026-04-27 06:56 -2.13640 115.87929 22036 ft 443 kts 48°
2026-04-27 06:57 -2.11558 115.90190 21389 ft 438 kts 48°
2026-04-27 06:57 -2.09513 115.92411 20748 ft 434 kts 48°
2026-04-27 06:57 -2.07468 115.94631 20100 ft 431 kts 48°
2026-04-27 06:57 -2.05449 115.96823 19482 ft 426 kts 48°
2026-04-27 06:58 -2.03450 115.98990 18858 ft 422 kts 48°
2026-04-27 06:58 -1.99524 116.03251 17633 ft 412 kts 48°
2026-04-27 06:58 -1.97590 116.05355 17032 ft 408 kts 48°
2026-04-27 06:59 -1.95677 116.07436 16427 ft 405 kts 48°
2026-04-27 06:59 -1.93778 116.09498 15840 ft 402 kts 48°
2026-04-27 06:59 -1.91895 116.11538 15264 ft 398 kts 48°
2026-04-27 06:59 -1.90023 116.13566 14675 ft 395 kts 48°
2026-04-27 07:00 -1.88172 116.15575 14097 ft 392 kts 48°
2026-04-27 07:00 -1.86333 116.17572 13527 ft 389 kts 48°
2026-04-27 07:00 -1.84509 116.19554 12955 ft 386 kts 48°
2026-04-27 07:00 -1.82699 116.21520 12378 ft 382 kts 48°
2026-04-27 07:01 -1.80907 116.23465 11833 ft 378 kts 47°
2026-04-27 07:01 -1.79139 116.25385 11279 ft 374 kts 47°
2026-04-27 07:01 -1.77385 116.27288 10732 ft 371 kts 47°
2026-04-27 07:01 -1.75662 116.29158 10487 ft 358 kts 47°
2026-04-27 07:02 -1.74013 116.30947 10378 ft 342 kts 47°
2026-04-27 07:02 -1.72436 116.32659 10254 ft 329 kts 47°
2026-04-27 07:02 -1.70913 116.34315 10125 ft 317 kts 47°
2026-04-27 07:02 -1.69454 116.35902 9999 ft 306 kts 47°
2026-04-27 07:03 -1.68035 116.37445 9854 ft 297 kts 47°
2026-04-27 07:03 -1.66661 116.38945 9743 ft 295 kts 47°
2026-04-27 07:03 -1.65265 116.40475 9441 ft 294 kts 47°
2026-04-27 07:03 -1.63911 116.41962 9092 ft 292 kts 47°
2026-04-27 07:04 -1.62528 116.43481 8726 ft 290 kts 47°
2026-04-27 07:04 -1.61191 116.44950 8372 ft 289 kts 47°
2026-04-27 07:04 -1.59824 116.46451 8009 ft 287 kts 47°
2026-04-27 07:04 -1.58505 116.47902 7662 ft 285 kts 47°
2026-04-27 07:05 -1.57178 116.49363 7314 ft 283 kts 47°
2026-04-27 07:05 -1.55857 116.50814 6962 ft 281 kts 47°
2026-04-27 07:05 -1.54548 116.52253 6606 ft 279 kts 47°
2026-04-27 07:05 -1.53243 116.53686 6263 ft 277 kts 47°
2026-04-27 07:06 -1.52124 116.55241 5923 ft 275 kts 62°
2026-04-27 07:06 -1.51405 116.57006 5751 ft 275 kts 68°
2026-04-27 07:06 -1.50727 116.58788 5559 ft 274 kts 68°
2026-04-27 07:06 -1.50042 116.60564 5362 ft 273 kts 68°
2026-04-27 07:07 -1.49362 116.62331 5166 ft 273 kts 68°
2026-04-27 07:07 -1.48683 116.64100 4993 ft 272 kts 68°
2026-04-27 07:07 -1.48009 116.65860 4804 ft 271 kts 68°
2026-04-27 07:07 -1.47339 116.67613 4604 ft 270 kts 68°
2026-04-27 07:08 -1.46668 116.69364 4417 ft 269 kts 68°
2026-04-27 07:08 -1.46005 116.71088 4228 ft 269 kts 68°
2026-04-27 07:08 -1.45158 116.72760 4029 ft 266 kts 49°
2026-04-27 07:08 -1.43714 116.73831 3838 ft 264 kts 21°
2026-04-27 07:09 -1.41910 116.74053 3631 ft 264 kts 352°
2026-04-27 07:09 -1.40168 116.73475 3422 ft 263 kts 338°
2026-04-27 07:09 -1.38511 116.72782 3210 ft 254 kts 338°
2026-04-27 07:09 -1.36885 116.72191 3005 ft 243 kts 353°
2026-04-27 07:10 -1.35292 116.72384 2826 ft 228 kts 27°
2026-04-27 07:10 -1.34150 116.73405 2665 ft 220 kts 59°
2026-04-27 07:10 -1.33449 116.74731 2505 ft 211 kts 62°
2026-04-27 07:10 -1.32800 116.75991 2372 ft 195 kts 62°
2026-04-27 07:11 -1.32212 116.77131 2224 ft 177 kts 61°
2026-04-27 07:11 -1.31668 116.78170 2097 ft 160 kts 61°
2026-04-27 07:11 -1.31176 116.79136 1999 ft 154 kts 64°
2026-04-27 07:11 -1.30752 116.80101 1769 ft 150 kts 65°
2026-04-27 07:12 -1.30354 116.81052 1568 ft 147 kts 65°
2026-04-27 07:12 -1.29958 116.81997 1376 ft 147 kts 65°
2026-04-27 07:12 -1.29563 116.82941 1190 ft 147 kts 65°
2026-04-27 07:12 -1.29170 116.83880 1001 ft 147 kts 65°
2026-04-27 07:13 -1.28773 116.84823 809 ft 148 kts 66°
2026-04-27 07:13 -1.28372 116.85778 613 ft 149 kts 66°
2026-04-27 07:13 -1.27969 116.86730 410 ft 149 kts 66°
2026-04-27 07:13 -1.27576 116.87689 236 ft 149 kts 66°
2026-04-27 07:14 -1.27183 116.88642 51 ft 148 kts 67°
2026-04-27 07:14 -1.26812 116.89509 23 ft 108 kts 66°
2026-04-27 07:14 -1.26625 116.89950 24 ft 47 kts 66°
2026-04-27 07:14 -1.26562 116.90099 20 ft 9 kts 64°
2026-04-27 07:15 -1.26515 116.90117 20 ft 7 kts 359°
2026-04-27 07:15 -1.26478 116.90108 20 ft 4 kts 340°
2026-04-27 07:15 -1.26456 116.90100 21 ft 2 kts 338°
2026-04-27 07:15 -1.26399 116.90076 21 ft 15 kts 338°
2026-04-27 07:16 -1.26333 116.90041 21 ft 9 kts 309°
2026-04-27 07:16 -1.26339 116.89982 21 ft 9 kts 249°
2026-04-27 07:16 -1.26321 116.89942 21 ft 6 kts 331°
2026-04-27 07:16 -1.26295 116.89930 21 ft 2 kts 336°
2026-04-27 07:17 -1.26284 116.89925 21 ft 1 kts 336°
2026-04-27 07:17 -1.26281 116.89924 21 ft 0 kts 336°